When you browse on this site, cookies collect data to enhance your experience and personalize the content and advertising you see.
Visit our Privacy Policy to learn more. By continuing to use the site, you agree to this use of cookies and data.
  • In Lithuania
  • List of Countries
  • For 7 days
  • Water Temperature
  • Satellite Maps
  • Weather Map
  • Weather Widgets
  • user-avatar
    Login

    Hourly Weather Mendoza

    Today, 23 May, Thursday

    Time Temperature Precipitation Wind Pressure Humidity
    00:00 +8°C° 0 mm 2 mps 702 mmHg 24%
    01:00 +8°C° 0 mm 2 mps 701 mmHg 21%
    02:00 +8°C° 0 mm 2 mps 701 mmHg 20%
    03:00 +7°C° 0 mm 2 mps 701 mmHg 19%
    04:00 +7°C° 0 mm 2 mps 701 mmHg 18%
    05:00 +7°C° 0 mm 2 mps 701 mmHg 18%
    06:00 +8°C° 0 mm 2 mps 701 mmHg 18%
    07:00 +8°C° 0 mm 2 mps 701 mmHg 18%
    08:00 +12°C° 0 mm 2 mps 702 mmHg 16%
    09:00 +14°C° 0 mm 2 mps 702 mmHg 14%
    10:00 +17°C° 0 mm 2 mps 702 mmHg 12%
    11:00 +18°C° 0 mm 2 mps 702 mmHg 11%
    12:00 +19°C° 0 mm 3 mps 702 mmHg 11%
    13:00 +20°C° 0 mm 3 mps 701 mmHg 11%
    14:00 +20°C° 0 mm 3 mps 701 mmHg 12%
    15:00 +19°C° 0 mm 3 mps 701 mmHg 12%
    16:00 +19°C° 0 mm 3 mps 700 mmHg 13%
    17:00 +17°C° 0 mm 3 mps 700 mmHg 15%
    18:00 +15°C° 0 mm 2 mps 700 mmHg 16%
    19:00 +14°C° 0 mm 2 mps 700 mmHg 18%
    20:00 +13°C° 0 mm 2 mps 700 mmHg 19%
    21:00 +13°C° 0 mm 2 mps 700 mmHg 20%
    22:00 +12°C° 0 mm 2 mps 700 mmHg 21%
    23:00 +12°C° 0 mm 2 mps 700 mmHg 22%

    Tomorrow, 24 May, Friday

    Time Temperature Precipitation Wind Pressure Humidity
    00:00 +10°C° 0 mm 2 mps 699 mmHg 23%
    01:00 +11°C° 0 mm 1 mps 699 mmHg 24%
    02:00 +10°C° 0 mm 1 mps 699 mmHg 24%
    03:00 +10°C° 0 mm 1 mps 698 mmHg 25%
    04:00 +10°C° 0 mm 1 mps 698 mmHg 25%
    05:00 +10°C° 0 mm 1 mps 698 mmHg 25%
    06:00 +10°C° 0 mm 1 mps 697 mmHg 24%
    07:00 +10°C° 0 mm 1 mps 697 mmHg 24%
    08:00 +12°C° 0 mm 2 mps 698 mmHg 21%
    09:00 +15°C° 0 mm 2 mps 698 mmHg 18%
    10:00 +17°C° 0 mm 2 mps 698 mmHg 15%
    11:00 +18°C° 0 mm 2 mps 697 mmHg 15%
    12:00 +19°C° 0 mm 3 mps 697 mmHg 14%
    13:00 +19°C° 0 mm 3 mps 696 mmHg 13%
    14:00 +19°C° 0 mm 2 mps 696 mmHg 15%
    15:00 +18°C° 0 mm 2 mps 696 mmHg 16%
    16:00 +18°C° 0 mm 2 mps 695 mmHg 17%
    17:00 +18°C° 0 mm 1 mps 695 mmHg 18%
    18:00 +16°C° 0 mm 1 mps 696 mmHg 19%
    19:00 +15°C° 0 mm 1 mps 696 mmHg 20%
    20:00 +14°C° 0 mm 1 mps 696 mmHg 22%
    21:00 +13°C° 0 mm 1 mps 696 mmHg 23%
    22:00 +13°C° 0 mm 1 mps 695 mmHg 24%
    23:00 +13°C° 0 mm 1 mps 695 mmHg 25%

    Day after tomorrow, 25 May, Saturday

    Time Temperature Precipitation Wind Pressure Humidity
    00:00 +13°C° 0 mm 1 mps 695 mmHg 26%
    01:00 +13°C° 0 mm 2 mps 695 mmHg 28%
    02:00 +13°C° 0 mm 2 mps 694 mmHg 29%
    03:00 +12°C° 0 mm 2 mps 694 mmHg 30%
    04:00 +10°C° 0 mm 2 mps 693 mmHg 31%
    05:00 +12°C° 0 mm 2 mps 694 mmHg 31%
    06:00 +12°C° 0 mm 1 mps 694 mmHg 30%
    07:00 +12°C° 0 mm 1 mps 694 mmHg 30%
    08:00 +14°C° 0 mm 1 mps 694 mmHg 26%
    09:00 +16°C° 0 mm 2 mps 694 mmHg 22%
    10:00 +18°C° 0 mm 2 mps 695 mmHg 18%
    11:00 +19°C° 0 mm 2 mps 694 mmHg 17%
    12:00 +20°C° 0 mm 2 mps 694 mmHg 17%
    13:00 +20°C° 0 mm 3 mps 693 mmHg 17%
    14:00 +20°C° 0 mm 2 mps 693 mmHg 19%
    15:00 +19°C° 0 mm 2 mps 693 mmHg 20%
    16:00 +18°C° 0 mm 2 mps 693 mmHg 22%
    17:00 +18°C° 0 mm 1 mps 694 mmHg 24%
    18:00 +16°C° 0 mm 1 mps 694 mmHg 25%
    19:00 +15°C° 0 mm 1 mps 694 mmHg 27%
    20:00 +15°C° 0 mm 1 mps 694 mmHg 27%
    21:00 +15°C° 0 mm 2 mps 694 mmHg 27%
    22:00 +14°C° 0 mm 2 mps 695 mmHg 28%
    23:00 +14°C° 0 mm 2 mps 695 mmHg 28%

    26 May, Sunday

    Time Temperature Precipitation Wind Pressure Humidity
    00:00 +13°C° 0 mm 2 mps 694 mmHg 29%
    01:00 +12°C° 0 mm 3 mps 694 mmHg 29%
    02:00 +12°C° 0 mm 3 mps 694 mmHg 30%
    03:00 +11°C° 0 mm 3 mps 694 mmHg 30%
    04:00 +11°C° 0 mm 3 mps 694 mmHg 31%
    05:00 +11°C° 0 mm 3 mps 695 mmHg 32%
    06:00 +11°C° 0 mm 3 mps 696 mmHg 33%
    07:00 +11°C° 0 mm 3 mps 696 mmHg 34%
    08:00 +13°C° 0 mm 3 mps 696 mmHg 30%
    09:00 +14°C° 0 mm 3 mps 697 mmHg 27%
    10:00 +17°C° 0 mm 4 mps 697 mmHg 23%
    11:00 +18°C° 0 mm 4 mps 697 mmHg 22%
    12:00 +18°C° 0 mm 4 mps 696 mmHg 21%
    13:00 +19°C° 0 mm 4 mps 696 mmHg 20%
    14:00 +18°C° 0 mm 3 mps 696 mmHg 22%
    15:00 +18°C° 0 mm 3 mps 696 mmHg 23%
    16:00 +17°C° 0 mm 2 mps 696 mmHg 24%
    17:00 +16°C° 0 mm 2 mps 696 mmHg 28%
    18:00 +15°C° 0 mm 2 mps 696 mmHg 32%
    19:00 +13°C° 0 mm 1 mps 696 mmHg 36%
    20:00 +13°C° 0 mm 1 mps 696 mmHg 38%
    21:00 +12°C° 0 mm 2 mps 696 mmHg 40%
    22:00 +12°C° 0 mm 2 mps 696 mmHg 43%
    23:00 +10°C° 0 mm 2 mps 696 mmHg 44%

    27 May, Monday

    Time Temperature Precipitation Wind Pressure Humidity
    00:00 +10°C° 0 mm 2 mps 696 mmHg 45%
    01:00 +10°C° 0 mm 2 mps 696 mmHg 46%
    02:00 +9°C° 0 mm 2 mps 695 mmHg 47%
    03:00 +9°C° 0 mm 2 mps 695 mmHg 47%
    04:00 +9°C° 0 mm 2 mps 695 mmHg 47%
    05:00 +9°C° 0 mm 2 mps 695 mmHg 47%
    06:00 +9°C° 0 mm 2 mps 695 mmHg 47%
    07:00 +9°C° 0 mm 2 mps 696 mmHg 47%
    08:00 +12°C° 0 mm 2 mps 696 mmHg 43%
    09:00 +14°C° 0 mm 2 mps 696 mmHg 38%
    10:00 +16°C° 0 mm 2 mps 696 mmHg 34%
    11:00 +17°C° 0 mm 2 mps 696 mmHg 33%
    12:00 +17°C° 0 mm 2 mps 695 mmHg 33%
    13:00 +18°C° 0 mm 2 mps 695 mmHg 32%
    14:00 +17°C° 0 mm 2 mps 695 mmHg 33%
    15:00 +17°C° 0 mm 2 mps 695 mmHg 33%
    16:00 +17°C° 0 mm 2 mps 695 mmHg 33%
    17:00 +16°C° 0 mm 1 mps 696 mmHg 37%
    18:00 +15°C° 0 mm 1 mps 696 mmHg 40%
    19:00 +13°C° 0 mm 1 mps 696 mmHg 43%
    20:00 +13°C° 0 mm 1 mps 696 mmHg 44%
    21:00 +12°C° 0 mm 1 mps 696 mmHg 45%
    22:00 +12°C° 0 mm 1 mps 696 mmHg 45%
    23:00 +11°C° 0 mm 1 mps 696 mmHg 45%

    28 May, Tuesday

    Time Temperature Precipitation Wind Pressure Humidity
    00:00 +11°C° 0 mm 1 mps 696 mmHg 45%
    01:00 +10°C° 0 mm 1 mps 696 mmHg 45%
    02:00 +10°C° 0 mm 1 mps 696 mmHg 45%
    03:00 +10°C° 0 mm 1 mps 696 mmHg 44%
    04:00 +10°C° 0 mm 1 mps 695 mmHg 44%
    05:00 +10°C° 0 mm 1 mps 696 mmHg 44%
    06:00 +10°C° 0 mm 1 mps 696 mmHg 45%
    07:00 +10°C° 0 mm 1 mps 696 mmHg 46%
    08:00 +12°C° 0 mm 1 mps 696 mmHg 42%
    09:00 +14°C° 0 mm 2 mps 696 mmHg 39%
    10:00 +16°C° 0 mm 2 mps 696 mmHg 35%
    11:00 +17°C° 0 mm 2 mps 696 mmHg 32%
    12:00 +17°C° 0 mm 3 mps 695 mmHg 29%
    13:00 +18°C° 0 mm 3 mps 695 mmHg 26%
    14:00 +18°C° 0 mm 3 mps 695 mmHg 25%
    15:00 +18°C° 0 mm 3 mps 695 mmHg 24%
    16:00 +17°C° 0 mm 3 mps 695 mmHg 23%
    17:00 +16°C° 0 mm 2 mps 695 mmHg 26%
    18:00 +14°C° 0 mm 1 mps 696 mmHg 30%
    19:00 +13°C° 0 mm 1 mps 696 mmHg 33%
    20:00 +13°C° 0 mm 1 mps 695 mmHg 34%
    21:00 +12°C° 0 mm 2 mps 695 mmHg 35%
    22:00 +12°C° 0 mm 2 mps 695 mmHg 35%
    23:00 +12°C° 0 mm 2 mps 695 mmHg 35%
    Show more